This is the latest recevied weather packets stored in our database for station/object NI4CE-11. If no packets are shown the sender has not sent any weather packets the latest 10 day(s).
| Time | Temp. | Humidity | Pressure | Rain* | Wind** | Luminosity | Snow |
|---|---|---|---|---|---|---|---|
| 1777278412 | 20° C | 100% | 1013.3 hPa | 0 mm | - | - | - |
| 1777278334 | 20° C | 100% | 1013.3 hPa | 0 mm | - | - | - |
| 1777278307 | 21.67° C | 100% | 1013.1 hPa | 0 mm | - | - | - |
| 1777278034 | 19.44° C | 100% | 1013.2 hPa | 0 mm | - | - | - |
| 1777277734 | 20.56° C | 100% | 1013.2 hPa | 0 mm | - | - | - |
| 1777277434 | 21.67° C | 100% | 1013.1 hPa | 0 mm | - | - | - |
| 1777277337 | 21.11° C | 100% | 1012.9 hPa | 0 mm | - | - | - |
| 1777277134 | 22.78° C | 100% | 1013 hPa | 0 mm | - | - | - |
| 1777276834 | 21.11° C | 100% | 1013.1 hPa | 0 mm | - | - | - |
| 1777276534 | 21.11° C | 100% | 1013 hPa | 0 mm | - | - | - |
| 1777276234 | 21.11° C | 100% | 1013.1 hPa | 0 mm | - | - | - |
| 1777275934 | 20° C | 100% | 1013 hPa | 0 mm | - | - | - |
| 1777275634 | 21.11° C | 100% | 1012.9 hPa | 0 mm | - | - | - |
| 1777275334 | 20° C | 100% | 1012.9 hPa | 0 mm | - | - | - |
| 1777275034 | 20° C | 100% | 1012.8 hPa | 0 mm | - | - | - |
| 1777274817 | 18.89° C | 100% | 1012.8 hPa | 0 mm | - | - | - |
| 1777274734 | 19.44° C | 100% | 1012.8 hPa | 0 mm | - | - | - |
| 1777274434 | 18.89° C | 100% | 1012.9 hPa | 0 mm | - | - | - |
| 1777274134 | 18.89° C | 100% | 1012.8 hPa | 0 mm | - | - | - |
| 1777274083 | 21.67° C | 100% | 1012.7 hPa | 0 mm | - | - | - |
| 1777273834 | 21.11° C | 100% | 1012.7 hPa | 0 mm | - | - | - |
| 1777273534 | 21.67° C | 100% | 1012.7 hPa | 0 mm | - | - | - |
| 1777273234 | 21.11° C | 100% | 1012.7 hPa | 0 mm | - | - | - |
| 1777272934 | 21.11° C | 100% | 1012.7 hPa | 0 mm | - | - | - |
| 1777272634 | 21.67° C | 100% | 1012.8 hPa | 0 mm | - | - | - |
* Rain latest hour (hover to see other rain measurements)
** Current wind speed in m/s (hover to see current wind gust speed)